Location: Newark
(11.2914°S, 14.4718°E)
Time: 00:45:39
(UTC+00:00)

Tiros 1 despin weight - Pass Details

Date: 23 September 2019
Orbit: 594 x 643 km, 48.2° (Epoch: 15 October)

Event Time Altitude Azimuth Distance (km) Brightness Sun altitude
Rises 06:11:34 0° 217° (SW) 2,951 ? 18.8°
Reaches altitude 10° 06:13:55 10° 214° (SW) 2,039 ? 19.4°
Maximum altitude 06:18:36 70° 131° (SE) 681 ? 20.6°
Drops below altitude 10° 06:23:15 10° 47° (NE) 2,016 ? 21.7°
Sets 06:25:33 0° 44° (NE) 2,915 ? 22.3°
